M7ANY Weather Reports


Display with metric or nautical units.
time (UTC)temp
F
wind
direction
speed
MPH
gust
MPH
rain 1hr
in
rain 24hr
in
rain mn
in
humidity
%
barometer
mb
20260510195216 49 138 1.0 3.0 0.00 0.00 0.00 59 1015.2
20260510194504 49 120 2.0 4.0 0.00 0.00 0.00 58 1015.1
20260510194004 49 110 2.0 4.0 0.00 0.00 0.00 58 1015.2
20260510193504 50 113 2.0 4.0 0.00 0.00 0.00 57 1015.2
20260510193004 50 126 2.0 4.0 0.00 0.00 0.00 57 1015.3
20260510192504 50 120 2.0 7.0 0.00 0.00 0.00 56 1015.3
20260510192003 50 105 3.0 8.0 0.00 0.00 0.00 55 1015.3
20260510191505 50 104 3.0 8.0 0.00 0.00 0.00 55 1015.4
20260510191003 51 105 3.0 8.0 0.00 0.00 0.00 55 1015.5
20260510190717 51 102 3.0 8.0 0.00 0.00 0.00 54 1015.5
20260510190215 51 101 4.0 8.0 0.00 0.00 0.00 54 1015.6
20260510185504 51 98 4.0 8.0 0.00 0.00 0.00 53 1015.5
20260510185216 51 98 4.0 8.0 0.00 0.00 0.00 53 1015.6
20260510184504 52 105 4.0 9.0 0.00 0.00 0.00 53 1015.6
20260510184217 52 105 4.0 9.0 0.00 0.00 0.00 54 1015.7
20260510183504 52 94 5.0 10.0 0.00 0.00 0.00 53 1015.7
20260510183003 52 86 5.0 10.0 0.00 0.00 0.00 52 1015.7
20260510182503 52 81 5.0 10.0 0.00 0.00 0.00 53 1015.8
20260510182003 53 80 5.0 11.0 0.00 0.00 0.00 52 1015.8
20260510181717 53 87 5.0 11.0 0.00 0.00 0.00 52 1015.8
20260510181003 54 77 5.0 11.0 0.00 0.00 0.00 51 1015.8
20260510180504 54 66 6.0 13.0 0.00 0.00 0.00 51 1015.9
20260510180216 54 66 7.0 13.0 0.00 0.00 0.00 50 1015.9
20260510175503 54 51 5.0 12.0 0.00 0.00 0.00 50 1015.9
20260510175217 54 55 5.0 11.0 0.00 0.00 0.00 49 1016.0
20260510174504 54 81 4.0 11.0 0.00 0.00 0.00 50 1016.0
20260510174004 54 62 3.0 8.0 0.00 0.00 0.00 48 1016.1
20260510173504 54 40 3.0 8.0 0.00 0.00 0.00 49 1016.2
20260510173003 54 30 3.0 8.0 0.00 0.00 0.00 50 1016.2
20260510172720 54 29 3.0 8.0 0.00 0.00 0.00 49 1016.3
20260510172215 54 26 4.0 11.0 0.00 0.00 0.00 49 1016.3
20260510171504 55 37 3.0 10.0 0.00 0.00 0.00 48 1016.3
20260510171004 55 48 4.0 7.0 0.00 0.00 0.00 49 1016.4
20260510170714 55 39 4.0 10.0 0.00 0.00 0.00 48 1016.4
20260510170003 56 30 5.0 10.0 0.00 0.00 0.00 47 1016.5
20260510165503 56 24 4.0 10.0 0.00 0.00 0.00 48 1016.5
20260510165005 56 17 4.0 11.0 0.00 0.00 0.00 48 1016.5
20260510164503 56 31 4.0 11.0 0.00 0.00 0.00 46 1016.6
20260510164004 56 37 5.0 11.0 0.00 0.00 0.00 46 1016.8
20260510163716 56 34 6.0 11.0 0.00 0.00 0.00 46 1016.8
20260510163003 57 47 6.0 13.0 0.00 0.00 0.00 46 1016.9
20260510162503 57 44 6.0 13.0 0.00 0.00 0.00 47 1017.0
20260510162004 57 44 5.0 13.0 0.00 0.00 0.00 46 1017.1
20260510161503 56 33 5.0 9.0 0.00 0.00 0.00 47 1017.1
20260510161003 57 27 6.0 12.0 0.00 0.00 0.00 45 1017.2
20260510160714 57 29 6.0 12.0 0.00 0.00 0.00 45 1017.3
20260510160004 57 32 7.0 13.0 0.00 0.00 0.00 46 1017.4
20260510155503 57 34 8.0 14.0 0.00 0.00 0.00 44 1017.5
20260510155003 57 39 8.0 15.0 0.00 0.00 0.00 44 1017.4
20260510154504 57 42 8.0 17.0 0.00 0.00 0.00 45 1017.5
20260510154004 58 45 6.0 17.0 0.00 0.00 0.00 45 1017.5
20260510153503 58 40 6.0 16.0 0.00 0.00 0.00 44 1017.5
20260510153003 58 33 6.0 12.0 0.00 0.00 0.00 44 1017.5
20260510152713 58 33 6.0 12.0 0.00 0.00 0.00 46 1017.6
20260510152216 59 30 8.0 16.0 0.00 0.00 0.00 44 1017.6
20260510151503 60 33 7.0 16.0 0.00 0.00 0.00 43 1017.7
20260510151003 60 38 7.0 14.0 0.00 0.00 0.00 42 1017.7
20260510150504 60 39 7.0 15.0 0.00 0.00 0.00 41 1017.7
20260510150218 60 39 7.0 15.0 0.00 0.00 0.00 41 1017.7
20260510145503 60 44 7.0 16.0 0.00 0.00 0.00 43 1017.8
20260510145004 60 37 8.0 18.0 0.00 0.00 0.00 42 1018.1
20260510144503 61 41 8.0 18.0 0.00 0.00 0.00 41 1018.1
20260510144004 62 53 7.0 18.0 0.00 0.00 0.00 40 1018.0
20260510143504 61 53 8.0 18.0 0.00 0.00 0.00 39 1018.1
20260510143004 61 37 8.0 15.0 0.00 0.00 0.00 40 1018.2
20260510142713 61 29 8.0 15.0 0.00 0.00 0.00 40 1018.3
20260510142003 61 36 7.0 15.0 0.00 0.00 0.00 40 1018.2
20260510141503 60 37 9.0 15.0 0.00 0.00 0.00 41 1018.4
20260510141003 61 33 8.0 15.0 0.00 0.00 0.00 40 1018.4
20260510140715 61 41 7.0 15.0 0.00 0.00 0.00 41 1018.3
20260510140004 61 55 8.0 15.0 0.00 0.00 0.00 39 1018.5
20260510135503 61 49 8.0 19.0 0.00 0.00 0.00 40 1018.5
20260510135003 62 38 8.0 19.0 0.00 0.00 0.00 41 1018.6
20260510134503 62 32 7.0 14.0 0.00 0.00 0.00 40 1018.5
20260510134215 62 30 7.0 12.0 0.00 0.00 0.00 41 1018.5
20260510133504 62 28 7.0 14.0 0.00 0.00 0.00 42 1018.6
20260510133003 61 31 8.0 16.0 0.00 0.00 0.00 41 1018.7
20260510132504 62 35 8.0 16.0 0.00 0.00 0.00 40 1018.7
20260510132003 62 43 7.0 15.0 0.00 0.00 0.00 41 1018.7
20260510131503 62 49 7.0 13.0 0.00 0.00 0.00 41 1018.8
20260510131004 62 41 8.0 15.0 0.00 0.00 0.00 41 1018.9
20260510130504 62 34 7.0 17.0 0.00 0.00 0.00 42 1018.8
20260510130003 61 38 8.0 17.0 0.00 0.00 0.00 42 1019.0
20260510125504 60 41 9.0 16.0 0.00 0.00 0.00 44 1019.0
20260510125003 60 38 9.0 16.0 0.00 0.00 0.00 44 1019.1
20260510124713 60 32 8.0 15.0 0.00 0.00 0.00 45 1019.1
20260510124003 60 29 7.0 13.0 0.00 0.00 0.00 43 1019.1
20260510123503 60 40 7.0 14.0 0.00 0.00 0.00 45 1019.2
20260510123004 60 48 8.0 16.0 0.00 0.00 0.00 43 1019.3
20260510122504 62 55 8.0 16.0 0.00 0.00 0.00 43 1019.3
20260510122004 62 47 8.0 16.0 0.00 0.00 0.00 45 1019.3
20260510121716 62 43 8.0 16.0 0.00 0.00 0.00 44 1019.3
20260510121003 62 27 9.0 15.0 0.00 0.00 0.00 46 1019.4
20260510120717 61 29 10.0 18.0 0.00 0.00 0.00 46 1019.4
20260510120214 61 40 10.0 22.0 0.00 0.00 0.00 46 1019.5
20260510115503 61 24 8.0 18.0 0.00 0.00 0.00 47 1019.5
20260510115004 61 36 9.0 16.0 0.00 0.00 0.00 43 1019.6
20260510114504 60 49 8.0 16.0 0.00 0.00 0.00 46 1019.6
20260510114217 60 49 8.0 16.0 0.00 0.00 0.00 47 1019.6
20260510113503 59 34 8.0 16.0 0.00 0.00 0.00 47 1019.7
20260510113003 59 29 7.0 15.0 0.00 0.00 0.00 46 1019.8
20260510112504 60 29 7.0 15.0 0.00 0.00 0.00 45 1019.8
20260510112213 60 34 7.0 14.0 0.00 0.00 0.00 47 1019.9
20260510111504 60 41 8.0 13.0 0.00 0.00 0.00 45 1020.0
20260510111004 61 52 8.0 15.0 0.00 0.00 0.00 46 1020.0
20260510110503 61 55 8.0 17.0 0.00 0.00 0.00 46 1020.0
20260510110003 60 51 9.0 17.0 0.00 0.00 0.00 49 1020.0
20260510105504 60 52 8.0 17.0 0.00 0.00 0.00 46 1020.1
20260510105004 60 46 8.0 18.0 0.00 0.00 0.00 47 1020.3
20260510104714 59 42 8.0 18.0 0.00 0.00 0.00 50 1020.3
20260510104004 58 37 8.0 14.0 0.00 0.00 0.00 51 1020.4
20260510103504 59 37 9.0 16.0 0.00 0.00 0.00 46 1020.4
20260510103004 60 45 9.0 16.0 0.00 0.00 0.00 47 1020.4
20260510102504 59 47 9.0 16.0 0.00 0.00 0.00 49 1020.5
20260510102214 58 42 9.0 16.0 0.00 0.00 0.00 51 1020.5
20260510101504 58 39 9.0 17.0 0.00 0.00 0.00 52 1020.5
20260510101004 57 39 8.0 16.0 0.00 0.00 0.00 54 1020.6
20260510100504 57 43 8.0 15.0 0.00 0.00 0.00 54 1020.6
20260510100004 57 44 9.0 16.0 0.00 0.00 0.00 52 1020.7
20260510095504 56 46 9.0 21.0 0.00 0.00 0.00 53 1020.8
20260510095004 55 40 9.0 21.0 0.00 0.00 0.00 56 1020.8
20260510094504 55 35 8.0 16.0 0.00 0.00 0.00 56 1020.8
20260510094218 56 42 9.0 17.0 0.00 0.00 0.00 57 1020.8
20260510093504 56 50 9.0 17.0 0.00 0.00 0.00 55 1020.9
20260510093004 55 45 8.0 14.0 0.00 0.00 0.00 60 1021.0
20260510092504 55 38 8.0 15.0 0.00 0.00 0.00 61 1021.0
20260510092003 55 47 9.0 16.0 0.00 0.00 0.00 61 1020.9
20260510091503 55 54 8.0 16.0 0.00 0.00 0.00 60 1021.0
20260510091003 54 51 8.0 14.0 0.00 0.00 0.00 62 1021.1
20260510090504 54 42 9.0 16.0 0.00 0.00 0.00 62 1021.1
20260510090004 54 36 9.0 18.0 0.00 0.00 0.00 61 1021.2
20260510085504 54 33 7.0 18.0 0.00 0.00 0.00 62 1021.2
20260510085004 55 34 8.0 17.0 0.00 0.00 0.00 61 1021.2
20260510084504 55 33 8.0 17.0 0.00 0.00 0.00 62 1021.2
20260510084003 54 39 7.0 14.0 0.00 0.00 0.00 64 1021.2
20260510083716 54 44 7.0 14.0 0.00 0.00 0.00 66 1021.2
20260510083003 52 40 8.0 14.0 0.00 0.00 0.00 67 1021.2
20260510082504 52 36 8.0 14.0 0.00 0.00 0.00 67 1021.2
20260510082215 52 37 7.0 14.0 0.00 0.00 0.00 66 1021.2
20260510081718 52 32 7.0 13.0 0.00 0.00 0.00 69 1021.1
20260510081005 52 35 8.0 17.0 0.00 0.00 0.00 68 1021.2
20260510080504 52 36 9.0 17.0 0.00 0.00 0.00 68 1021.2
20260510080004 52 32 8.0 17.0 0.00 0.00 0.00 70 1021.1
20260510075503 52 32 7.0 15.0 0.00 0.00 0.00 71 1021.1
20260510075003 51 32 7.0 13.0 0.00 0.00 0.00 73 1021.1
20260510074503 51 35 8.0 14.0 0.00 0.00 0.00 74 1021.1
20260510074004 50 29 8.0 14.0 0.00 0.00 0.00 74 1021.1
20260510073503 50 26 7.0 14.0 0.00 0.00 0.00 75 1021.2
20260510073003 50 31 8.0 16.0 0.00 0.00 0.00 76 1021.2
20260510072503 50 28 7.0 16.0 0.00 0.00 0.00 76 1021.2
20260510072003 50 29 6.0 14.0 0.00 0.00 0.00 78 1021.2
20260510071714 49 27 6.0 14.0 0.00 0.00 0.00 77 1021.1
20260510071003 49 21 7.0 12.0 0.00 0.00 0.00 78 1021.1
20260510070504 50 18 7.0 13.0 0.00 0.00 0.00 77 1021.1
20260510070004 50 19 6.0 13.0 0.00 0.00 0.00 76 1021.1
20260510065504 50 27 6.0 11.0 0.00 0.00 0.00 77 1021.1
20260510065003 50 29 6.0 13.0 0.00 0.00 0.00 77 1021.1
20260510064504 50 31 7.0 13.0 0.00 0.00 0.00 78 1021.0
20260510064004 50 29 6.0 13.0 0.00 0.00 0.00 79 1021.1
20260510063504 49 32 7.0 13.0 0.00 0.00 0.00 80 1021.1
20260510063003 49 29 7.0 14.0 0.00 0.00 0.00 81 1021.1
20260510062503 48 23 7.0 14.0 0.00 0.00 0.00 82 1021.0
20260510062003 47 28 6.0 14.0 0.00 0.00 0.00 83 1021.0
20260510061504 47 29 6.0 11.0 0.00 0.00 0.00 83 1021.0
20260510061003 47 23 5.0 13.0 0.00 0.00 0.00 84 1021.0
20260510060503 46 18 7.0 13.0 0.00 0.00 0.00 84 1021.0
20260510060213 46 15 7.0 13.0 0.00 0.00 0.00 84 1021.0
20260510055503 46 13 7.0 13.0 0.00 0.00 0.00 84 1021.0
20260510055003 46 17 6.0 13.0 0.00 0.00 0.00 84 1021.0
20260510054503 46 16 5.0 12.0 0.00 0.00 0.00 84 1021.0
20260510054003 46 12 6.0 10.0 0.00 0.00 0.00 84 1020.9
20260510053718 46 14 6.0 10.0 0.00 0.00 0.00 83 1021.0
20260510053003 46 13 5.0 10.0 0.00 0.00 0.00 82 1021.1
20260510052503 47 14 6.0 14.0 0.00 0.00 0.00 83 1021.0
20260510052004 47 9 7.0 14.0 0.00 0.00 0.00 82 1021.0
20260510051504 47 8 8.0 15.0 0.00 0.00 0.00 82 1021.0
20260510051004 47 12 7.0 15.0 0.00 0.00 0.00 81 1020.9
20260510050504 48 16 5.0 13.0 0.00 0.00 0.00 81 1020.9
20260510050004 48 23 6.0 12.0 0.00 0.00 0.00 80 1021.0
20260510045503 48 27 8.0 12.0 0.00 0.00 0.00 80 1020.9
20260510045215 48 25 7.0 12.0 0.00 0.00 0.00 80 1021.0
20260510044718 48 25 7.0 14.0 0.00 0.00 0.00 80 1021.0
20260510044003 48 20 8.0 16.0 0.00 0.00 0.00 81 1021.0
20260510043503 48 17 8.0 16.0 0.00 0.00 0.00 81 1020.9
20260510043004 48 20 7.0 13.0 0.00 0.00 0.00 82 1020.9
20260510042503 48 21 7.0 14.0 0.00 0.00 0.00 82 1020.8
20260510042213 48 23 8.0 14.0 0.00 0.00 0.00 82 1020.8
20260510041503 48 29 7.0 12.0 0.00 0.00 0.00 82 1020.8
20260510041003 48 26 6.0 12.0 0.00 0.00 0.00 82 1020.9
20260510040717 48 29 6.0 14.0 0.00 0.00 0.00 82 1020.9
20260510040003 48 32 5.0 14.0 0.00 0.00 0.00 82 1020.9
20260510035504 48 27 5.0 10.0 0.00 0.00 0.00 82 1021.0
20260510035003 48 29 5.0 11.0 0.00 0.00 0.00 82 1021.1
20260510034504 48 26 6.0 14.0 0.00 0.00 0.00 82 1021.2
20260510034004 48 28 8.0 14.0 0.00 0.00 0.00 82 1021.2
20260510033503 48 29 8.0 13.0 0.00 0.00 0.00 83 1021.2
20260510033003 48 23 6.0 15.0 0.00 0.00 0.00 83 1021.2
20260510032503 48 23 6.0 15.0 0.00 0.00 0.00 83 1021.2
20260510032004 48 27 6.0 12.0 0.00 0.00 0.00 83 1021.3
20260510031504 48 30 6.0 12.0 0.00 0.00 0.00 83 1021.3
20260510031004 48 24 6.0 13.0 0.00 0.00 0.00 83 1021.4
20260510030503 48 19 7.0 13.0 0.00 0.00 0.00 83 1021.3
20260510030003 48 18 7.0 13.0 0.00 0.00 0.00 83 1021.4
20260510025713 48 18 7.0 14.0 0.00 0.00 0.00 83 1021.4
20260510025003 48 15 7.0 15.0 0.00 0.00 0.00 83 1021.3
20260510024504 48 19 5.0 13.0 0.00 0.00 0.00 83 1021.3
20260510024217 48 20 5.0 11.0 0.00 0.00 0.00 84 1021.4
20260510023503 48 17 6.0 13.0 0.00 0.00 0.00 83 1021.4
20260510023004 49 16 7.0 14.0 0.00 0.00 0.00 83 1021.4
20260510022503 49 15 7.0 15.0 0.00 0.00 0.00 83 1021.3
20260510022003 49 16 7.0 15.0 0.00 0.00 0.00 83 1021.3
20260510021503 49 18 7.0 15.0 0.00 0.00 0.00 83 1021.1
20260510021003 49 15 7.0 14.0 0.00 0.00 0.00 83 1021.0
20260510020503 49 12 8.0 18.0 0.00 0.00 0.00 84 1021.1
20260510020003 49 11 9.0 18.0 0.00 0.00 0.00 83 1021.1
20260510015504 49 10 9.0 17.0 0.00 0.00 0.00 84 1021.0
20260510015003 49 13 8.0 17.0 0.00 0.00 0.00 84 1021.0
20260510014503 49 20 7.0 16.0 0.00 0.00 0.00 85 1021.1
20260510014003 49 20 8.0 14.0 0.00 0.00 0.00 85 1021.0
20260510013503 49 20 8.0 15.0 0.00 0.00 0.00 85 1021.0
20260510013003 49 21 7.0 15.0 0.00 0.00 0.00 85 1021.1
20260510012503 49 20 6.0 14.0 0.00 0.00 0.00 86 1021.0
20260510012214 49 21 6.0 14.0 0.00 0.00 0.00 86 1021.1
20260510011504 49 23 7.0 14.0 0.00 0.00 0.00 86 1021.1
20260510011004 49 28 7.0 13.0 0.00 0.00 0.00 86 1021.1
20260510010503 49 30 7.0 15.0 0.00 0.00 0.00 86 1021.0
20260510010004 49 24 7.0 15.0 0.00 0.00 0.00 86 1021.1
20260510005714 49 23 7.0 15.0 0.00 0.00 0.00 86 1021.1
20260510005003 49 23 7.0 14.0 0.00 0.00 0.00 86 1021.1
20260510004715 49 24 6.0 14.0 0.00 0.00 0.00 86 1021.1
20260510004003 49 18 6.0 13.0 0.00 0.00 0.00 87 1021.1
20260510003504 49 15 6.0 13.0 0.00 0.00 0.00 87 1021.2
20260510003214 49 16 6.0 13.0 0.00 0.00 0.00 87 1021.2
20260510002717 49 13 7.0 13.0 0.00 0.00 0.00 87 1021.3
20260510002003 50 13 8.0 16.0 0.00 0.00 0.00 87 1021.3
20260510001504 50 12 8.0 16.0 0.00 0.00 0.00 87 1021.3
20260510001004 50 12 8.0 14.0 0.00 0.00 0.00 87 1021.3
20260510000503 50 13 8.0 17.0 0.00 0.00 0.00 87 1021.4
20260510000218 50 14 8.0 17.0 0.00 0.00 0.00 87 1021.4
20260509235715 50 15 9.0 14.0 0.00 0.00 0.00 87 1021.4
20260509235004 50 10 8.0 15.0 0.00 0.00 0.00 86 1021.3
20260509234503 50 11 8.0 15.0 0.00 0.00 0.00 86 1021.4
20260509234004 50 13 7.0 14.0 0.00 0.00 0.00 86 1021.4
20260509233504 50 14 7.0 13.0 0.00 0.00 0.00 86 1021.4
20260509233004 50 11 7.0 14.0 0.00 0.00 0.00 86 1021.4
20260509232503 50 16 7.0 14.0 0.00 0.00 0.00 86 1021.4
20260509232003 50 28 6.0 12.0 0.00 0.00 0.00 86 1021.4
20260509231503 50 27 8.0 17.0 0.00 0.00 0.00 86 1021.3
20260509231003 50 17 10.0 18.0 0.00 0.00 0.00 85 1021.3
20260509230503 50 13 10.0 18.0 0.00 0.00 0.00 85 1021.4
20260509230006 50 15 9.0 18.0 0.00 0.00 0.00 85 1021.3
20260509225503 51 16 7.0 16.0 0.00 0.00 0.00 85 1021.2
20260509225004 51 21 9.0 18.0 0.00 0.00 0.00 85 1021.2
20260509224503 51 20 9.0 18.0 0.00 0.00 0.00 85 1021.1
20260509224004 51 19 7.0 14.0 0.00 0.00 0.00 85 1021.1
20260509223504 51 17 8.0 15.0 0.00 0.00 0.00 85 1021.0
20260509223004 51 18 8.0 15.0 0.00 0.00 0.00 85 1021.0
20260509222504 51 19 8.0 13.0 0.00 0.00 0.00 85 1021.0
20260509222003 51 18 8.0 16.0 0.00 0.00 0.00 85 1020.9
20260509221714 51 19 8.0 16.0 0.00 0.00 0.00 85 1021.0
20260509221003 51 15 8.0 14.0 0.00 0.00 0.00 85 1021.0
20260509220504 51 12 7.0 12.0 0.00 0.00 0.00 86 1021.1
20260509220004 51 7 7.0 14.0 0.00 0.00 0.00 86 1021.1
20260509215503 51 8 7.0 14.0 0.00 0.00 0.00 86 1021.1
20260509215004 51 11 7.0 14.0 0.00 0.00 0.00 86 1020.9
20260509214504 51 12 7.0 13.0 0.00 0.00 0.00 86 1020.9
20260509214003 51 14 7.0 15.0 0.00 0.00 0.00 86 1020.9
20260509213503 51 13 8.0 15.0 0.00 0.00 0.00 86 1020.9
20260509213003 51 15 9.0 17.0 0.00 0.00 0.00 87 1020.9
20260509212503 51 17 9.0 17.0 0.00 0.00 0.00 87 1020.9
20260509212217 51 17 8.0 17.0 0.00 0.00 0.00 87 1020.8
20260509211503 51 17 7.0 13.0 0.00 0.00 0.00 87 1020.8
20260509211003 51 15 8.0 14.0 0.00 0.00 0.00 87 1020.8
20260509210716 51 18 8.0 16.0 0.00 0.00 0.00 86 1020.8
20260509210214 51 20 8.0 16.0 0.00 0.00 0.00 86 1020.7
20260509205503 51 18 7.0 15.0 0.00 0.00 0.00 86 1020.7
20260509205005 51 15 7.0 15.0 0.00 0.00 0.00 86 1020.6
20260509204504 51 12 8.0 15.0 0.00 0.00 0.00 86 1020.6
20260509204003 51 11 8.0 14.0 0.00 0.00 0.00 85 1020.5
20260509203714 51 13 9.0 15.0 0.00 0.00 0.00 85 1020.5
20260509203004 52 11 8.0 15.0 0.00 0.00 0.00 84 1020.4
20260509202504 52 14 8.0 15.0 0.00 0.00 0.00 84 1020.4
20260509202003 52 19 8.0 14.0 0.00 0.00 0.00 84 1020.4
20260509201503 52 19 8.0 16.0 0.00 0.00 0.00 83 1020.3
20260509201004 52 22 8.0 17.0 0.00 0.00 0.00 83 1020.4
20260509200503 52 28 6.0 17.0 0.00 0.00 0.00 82 1020.4
20260509200003 53 27 6.0 11.0 0.00 0.00 0.00 83 1020.4
20260509195503 53 19 6.0 11.0 0.00 0.00 0.00 84 1020.3